Content
SEND FEEDBACK

Daily
Averages
Monthly
Summary
Cuba

GUANABACOA, CUBA


Home > Caribbean > Cuba
Elevation: 164 feet     Latitude: 23 10N     Longitude: 082 21W

WEATHER
 
SELECT A DAY
Number of Records: 138,881;   Date Range: 6/30/96 - 7/20/14
 
SHARE

PRINT THIS DATA

[ ← Previous Day ]
WEATHER ALMANAC - MAY 14, 2014
[ Next Day → ]
[ °C ]   °F
Weather ElementAverageHighLow
Temperature78.6 °F86 °F (1:55 pm)69.8 °F (4:55 am)
Dewpoint69.4 °F72 °F (11:00 pm)66.2 °F (4:55 am)
Humidity73.8 %88 % (1:55 am)47 % (5:00 pm)
Barometer29.96 in30.01 in (10:55 pm)29.91 in (5:00 pm)
Wind Speed7.5 mph15 mph (3:55 pm)
Weather ElementAverage
Visibility5.7 mi
Wind DirectionESE (120 °)

Weather ElementTotal
Precipitation---
Cooling Degree Days12.9 (Base 65)
Growing Degree Days27.9 (Base 50)
Averaged from 28 records on May 14, 2014
WEATHER CONDITIONS BREAKOUT
WIND DIRECTION BREAKOUT
WEATHER BY HOUR - MAY 14, 2014
[ °C ]   °F
Local TimeTemperatureDewpointHumidityBarometerVisibilityWind DirectionWind SpeedGust SpeedPrecipitationEventsConditions
1:55 AM71.6 °F68.0 °F88 %29.95 in5.6 miEast (90°)6.9 mph
2:55 AM71.6 °F68.0 °F88 %29.95 in5.6 miEast (90°)5.8 mph
3:55 AM71.6 °F68.0 °F88 %29.95 in5.6 miEast (90°)4.6 mph
4:55 AM69.8 °F66.2 °F88 %29.92 in5.6 miEast (80°)3.5 mph
5:00 AM70.0 °F67.0 °F87 %29.94 in6.0 mi°2.2 mphClear
5:55 AM69.8 °F66.2 °F88 %29.95 in5.6 miCalm
6:55 AM69.8 °F66.2 °F88 %29.95 in5.6 miCalmPartly Cloudy
7:55 AM73.4 °F69.8 °F88 %29.95 in5.6 miNNE (30°)2.3 mphPartly Cloudy
8:55 AM77.0 °F71.6 °F83 %29.98 in5.6 miEast (100°)3.5 mphPartly Cloudy
9:55 AM80.6 °F71.6 °F74 %29.98 in5.6 miSE (140°)8.1 mphScattered Clouds
10:55 AM82.4 °F69.8 °F66 %29.98 in5.6 miSSE (150°)11.5 mphScattered Clouds
11:00 AM82.0 °F70.0 °F59 %29.99 in6.0 mi°11.2 mphHaze
11:55 AM84.2 °F69.8 °F62 %29.98 in5.6 miSouth (170°)11.5 mphMostly Cloudy
12:55 PM84.2 °F69.8 °F62 %29.98 in5.6 miSouth (170°)10.4 mphMostly Cloudy
1:55 PM86.0 °F68.0 °F55 %29.98 in5.6 miSouth (170°)12.7 mphMostly Cloudy
2:55 PM86.0 °F69.8 °F58 %29.95 in5.6 miSouth (170°)12.7 mphMostly Cloudy
3:55 PM86.0 °F71.6 °F62 %29.92 in5.6 miSSW (200°)15.0 mphMostly Cloudy
4:55 PM86.0 °F68.0 °F55 %29.92 in5.6 miSouth (190°)12.7 mphMostly Cloudy
5:00 PM86.0 °F69.0 °F47 %29.91 in6.0 miSouth (190°)13.4 mphHaze
5:36 PM84.2 °F69.8 °F62 %29.92 in5.6 miEast (80°)12.7 mphMostly Cloudy
5:55 PM80.6 °F71.6 °F74 %29.92 in5.6 miEast (80°)10.4 mphScattered Clouds
6:55 PM84.2 °F68.0 °F58 %29.92 in5.6 miSSE (160°)9.2 mphScattered Clouds
7:55 PM80.6 °F69.8 °F70 %29.95 in5.6 miSE (140°)5.8 mphScattered Clouds
8:55 PM77.0 °F71.6 °F83 %29.98 in5.6 miEast (90°)4.6 mphScattered Clouds
9:55 PM77.0 °F71.6 °F83 %29.98 in5.6 miESE (110°)3.5 mphScattered Clouds
10:55 PM77.0 °F71.6 °F83 %30.01 in5.6 miEast (100°)4.6 mphScattered Clouds
11:00 PM76.0 °F72.0 °F83 %30.00 in6.0 miEast (100°)4.5 mphHaze
11:55 PM75.2 °F69.8 °F83 %30.01 in5.6 miSW (230°)5.8 mphScattered Clouds
Hourly data recorded from MUHA, located miles away from Guanabacoa, Cuba







STORIES FROM OUR PARTNERS